Weather History for Worcester, MA

Change the Weather History Date:

Sunday, October 7, 2012

  Actual Average Record
Temperature  
Mean Temperature 47 °F 53 °F  
Max Temperature 53 °F 61 °F 88 °F (1946)
Min Temperature 41 °F 45 °F 30 °F (1986)
Degree Days  
Heating Degree Days 18 12  
Month to date heating degree days 48 77  
Since 1 July heating degree days 184 270  
Cooling Degree Days 0 0  
Month to date cooling degree days 0 0  
Year to date cooling degree days 674 468  
Moisture  
Dew Point 39 °F    
Average Humidity 74    
Maximum Humidity 93    
Minimum Humidity 54    
Precipitation  
Precipitation 0.19 in 0.16 in 3.47 in (1972)
Month to date precipitation 0.42 1.10  
Year to date precipitation 33.84 36.39  
Sea Level Pressure  
Sea Level Pressure 30.04 in    
Wind  
Wind Speed 5 mph (West)    
Max Wind Speed 17 mph    
Max Gust Speed 23 mph    
Visibility 9 miles    
Events Rain    
T = Trace of Precipitation, MM = Missing Value Source: NWS Daily Summary

Daily Weather History Graph

Daily Weather History Graph

Search for Another Location

Airport:

Trip Planner

Search our weather history database for the weather conditions in past years. The results will help you decide how hot, cold, wet, or windy it might be!

Date:

Astronomy

Oct. 07, 2012 Rise Set
Actual Time 6:51 AM EDT 6:17 PM EDT
Civil Twilight 6:23 AM EDT 6:45 PM EDT
Nautical Twilight 5:51 AM EDT 7:18 PM EDT
Astronomical Twilight 5:18 AM EDT 7:50 PM EDT
Moon 11:22 PM EDT (10/7) 1:31 PM EDT (10/7)
Length of Visible Light 12h 22m
Length of Day
11h 26m
Waning Gibbous, 56% of the Moon is Illuminated
Oct 7
Waning Gibbous
Oct 8
Last Quarter
Oct 15
New
Oct 21
First Quarter
Oct 29
Full

Hourly Weather History & Observations

Time (EDT) Temp. Windchill Dew Point Humidity Pressure Visibility Wind Dir Wind Speed Gust Speed Precip Events Conditions
12:54 AM 48.0 °F - 36.0 °F 63% 29.95 in 10.0 mi WNW 13.8 mph 19.6 mph N/A   Clear
1:54 AM 46.9 °F - 35.1 °F 63% 29.96 in 10.0 mi WNW 5.8 mph - N/A   Clear
2:54 AM 45.0 °F 41.8 °F 34.0 °F 65% 29.96 in 10.0 mi WNW 5.8 mph - N/A   Clear
3:54 AM 43.0 °F 38.8 °F 35.1 °F 74% 29.98 in 10.0 mi WNW 6.9 mph - N/A   Clear
4:54 AM 41.0 °F 36.4 °F 35.1 °F 79% 30.01 in 10.0 mi SW 6.9 mph - N/A   Clear
5:54 AM 43.0 °F 37.7 °F 36.0 °F 76% 30.02 in 10.0 mi WNW 9.2 mph - N/A   Clear
6:54 AM 41.0 °F 39.0 °F 35.1 °F 79% 30.05 in 10.0 mi WSW 3.5 mph - N/A   Clear
7:54 AM 45.0 °F 41.2 °F 37.0 °F 74% 30.06 in 10.0 mi West 6.9 mph - N/A   Clear
8:54 AM 48.9 °F - 37.0 °F 64% 30.08 in 10.0 mi WNW 4.6 mph - N/A   Clear
9:54 AM 51.1 °F - 37.9 °F 61% 30.09 in 10.0 mi Calm Calm - N/A   Clear
10:54 AM 53.1 °F - 37.0 °F 55% 30.08 in 10.0 mi Calm Calm - N/A   Scattered Clouds
11:54 AM 52.0 °F - 39.0 °F 61% 30.07 in 10.0 mi Calm Calm - N/A   Overcast
12:54 PM 52.0 °F - 37.9 °F 59% 30.08 in 10.0 mi West 6.9 mph - N/A   Mostly Cloudy
1:54 PM 52.0 °F - 37.9 °F 59% 30.06 in 10.0 mi WSW 5.8 mph - N/A   Mostly Cloudy
2:54 PM 51.1 °F - 39.9 °F 66% 30.06 in 10.0 mi WSW 4.6 mph - N/A   Overcast
3:54 PM 51.1 °F - 39.9 °F 66% 30.04 in 10.0 mi West 3.5 mph - N/A   Overcast
4:54 PM 51.1 °F - 39.9 °F 66% 30.03 in 10.0 mi SSW 4.6 mph - N/A   Mostly Cloudy
5:54 PM 50.0 °F - 41.0 °F 71% 30.04 in 10.0 mi SW 3.5 mph - N/A   Overcast
6:54 PM 48.9 °F - 41.0 °F 74% 30.04 in 10.0 mi Calm Calm - N/A   Overcast
7:54 PM 48.0 °F - 43.0 °F 83% 30.01 in 10.0 mi South 4.6 mph - 0.00 in   Overcast
8:54 PM 48.0 °F - 45.0 °F 89% 30.06 in 10.0 mi WSW 8.1 mph - 0.00 in Rain Light Rain
9:54 PM 46.9 °F - 44.1 °F 90% 30.07 in 7.0 mi WSW 4.6 mph - 0.03 in Rain Light Rain
10:23 PM 46.4 °F 42.9 °F 44.6 °F 93% 30.05 in 4.0 mi WNW 6.9 mph - 0.06 in Rain Heavy Rain
10:41 PM 46.4 °F 42.4 °F 42.8 °F 87% 30.05 in 7.0 mi West 8.1 mph - 0.08 in Rain Rain
10:54 PM 45.0 °F 38.2 °F 42.1 °F 90% 30.07 in 7.0 mi WNW 15.0 mph 23.0 mph 0.10 in Rain Rain
11:54 PM 44.1 °F 41.5 °F 42.1 °F 93% 30.06 in 10.0 mi West 4.6 mph - 0.06 in Rain Light Rain